Location: Bonny Doon Airfield
(37.0704°N, 122.1252°W)
Time: 23:12:01
(UTC-07:00)

Envisat - Pass Details

Date: 13 October 2017
Orbit: 764 x 766 km, 98.2° (Epoch: 23 October)

Event Time Altitude Azimuth Distance (km) Brightness Sun altitude
Exits shadow 21:17:25 31° 332° (NNW) 1,313 4.5 -33.2°
Drops below altitude 10° 21:20:06 10° 341° (NNW) 2,307 5.8 -33.7°
Sets 21:22:26 0° 345° (NNW) 3,236 6.6 -34.1°
